CAPE
0 0 0 0 0 0 0 0 0 0 0 0 0 0 0 0 0 0 0 0 0 0 0 0 0 0 0 0 1 0 0 1 1 0 0 0 0 0 0 1 0 0 1
0 0 0 0 0 0 0 0 0 0 0 0 0 0 0 0 0 0 0 0 0 0 0 0 0 0 0 0 0 0 0 2 1 1 0 0 1 2 2 2 0 3 0
0 0 0 0 0 0 0 0 0 0 0 0 0 0 0 0 0 0 0 0 0 0 0 0 0 0 0 0 0 0 0 0 2 4 0 1 2 2 2 3 3 1 1
0 0 0 0 0 0 0 0 0 0 0 0 0 0 0 0 0 0 0 0 0 0 0 0 0 0 0 0 0 0 0 0 1 1 1 1 2 1 3 2 0 3 2
0 0 0 0 0 0 0 0 0 0 0 0 0 0 0 0 0 0 0 0 0 0 0 0 0 0 0 0 1 0 0 0 1 0 0 0 0 1 2 5 6 3 0
0 0 0 0 0 0 0 0 0 0 0 0 0 0 0 0 0 0 0 0 0 0 0 0 0 0 0 1 1 1 1 0 1 2 2 2 0 3 2 5 7 6 2
0 0 0 0 0 0 0 0 0 0 0 0 0 0 0 0 0 0 0 0 0 0 0 0 0 0 0 3 1 0 0 0 0 0 2 1 2 0 0 0 0 1 3
0 0 0 0 0 0 0 0 0 0 0 0 0 0 0 0 0 1 0 0 0 0 0 0 0 0 0 0 0 0 0 0 0 0 0 1 1 1 1 3 1 0 0
0 0 0 0 0 0 0 0 0 0 0 0 0 0 0 0 0 0 0 0 0 0 0 0 0 1 1 1 0 0 0 0 0 0 0 0 0 0 0 0 1 2 2
0 0 0 0 0 0 0 0 0 0 0 0 0 0 0 0 0 0 0 0 0 0 0 0 0 1 1 1 0 0 1 1 0 0 0 0 0 0 0 0 1 1 2
0 0 0 0 0 0 0 0 0 0 0 0 0 0 0 0 0 0 0 0 1 0 0 0 0 0 0 0 0 0 0 0 0 0 0 0 0 0 0 0 0 0 2
0 0 0 0 0 0 0 0 0 0 0 0 0 0 0 0 0 0 0 0 0 0 0 0 0 0 0 0 0 0 0 0 0 0 0 0 0 0 0 0 0 0 0
0 0 0 0 0 0 0 0 0 0 0 0 0 0 0 0 0 0 0 0 0 0 0 0 0 0 0 0 0 0 0 0 0 0 0 0 0 0 0 0 0 0 0
0 0 0 0 0 0 0 0 0 0 0 0 0 0 0 0 0 0 0 0 0 0 0 0 0 0 0 0 0 0 0 0 0 0 0 0 0 0 0 0 0 0 0
0 0 0 0 0 0 0 0 0 0 0 0 0 0 0 0 0 0 0 0 0 0 0 0 0 0 0 0 0 0 0 0 0 0 0 0 0 0 0 0 0 0 0
0 0 0 0 0 0 0 0 0 0 0 0 0 0 0 0 0 0 0 0 0 0 0 0 0 0 0 0 0 0 0 0 0 0 0 0 0 0 0 0 0 0 0
0 0 0 0 0 0 0 0 0 0 0 0 0 0 0 0 0 0 0 0 0 0 0 0 0 0 0 0 0 0 0 0 0 0 0 0 0 0 0 0 0 0 0
0 0 0 0 0 0 0 0 0 0 0 0 0 0 0 0 0 0 0 0 0 0 0 0 0 0 0 0 0 0 0 0 0 0 0 0 0 0 0 0 0 0 0
0 0 0 0 0 0 0 0 0 0 0 0 0 0 0 0 0 0 0 0 0 0 0 0 0 0 0 0 0 0 0 0 0 0 0 0 0 0 0 0 0 0 0
0 0 0 0 0 0 0 0 0 0 0 0 0 0 0 0 0 0 0 0 0 0 0 0 0 0 0 0 0 0 0 0 0 0 0 0 0 0 0 0 0 0 0
0 0 0 0 0 0 0 0 0 0 0 0 0 0 0 0 0 0 0 0 0 0 0 0 0 0 0 0 0 0 0 0 0 0 0 0 0 0 0 0 0 0 0
0 0 0 0 0 0 0 0 0 0 0 0 0 0 0 0 0 0 0 0 0 0 0 0 0 0 0 0 0 0 0 0 0 0 0 0 0 0 0 0 0 0 0
0 0 0 0 0 0 0 0 0 0 0 0 0 0 0 0 0 0 0 0 0 0 0 0 0 0 0 0 0 0 0 0 0 0 0 0 0 0 0 0 0 0 0
0 0 0 0 0 0 0 0 0 0 0 0 0 0 0 0 0 0 0 0 0 0 0 0 0 0 0 0 0 0 0 0 0 0 0 0 0 0 0 0 0 0 0
0 0 0 0 0 0 0 0 0 0 0 0 0 0 0 0 0 0 0 0 0 0 0 0 0 0 0 0 0 0 0 0 0 0 0 0 0 0 0 0 0 0 0
0 0 0 0 0 0 0 0 0 0 0 0 0 0 0 0 0 0 0 0 0 0 0 0 0 0 0 0 0 0 0 0 0 0 0 0 0 0 0 0 0 0 0
CIN
-0 -0 -0 -0 -0 -0 -0 -0 -0 -0 -0 -0 -0 -0 -0 -0 -0 -0 -0 -0 -0 -0 -0 -0 -0 -0 -0 -0 -0 -0 -0 -0 -0 -0 -0 -0 -0 -0 -0 -0 -0 -0 -0
-0 -0 -0 -0 -0 -0 -0 -0 -0 -0 -0 -0 -0 -0 -0 -0 -0 -0 -0 -0 -0 -0 -0 -0 -0 -0 -0 -0 -0 -0 -0 -0 -0 -0 -0 -0 -1 -0 -0 -0 -1 -0 -0
-0 -0 -0 -0 -0 -0 -0 -0 -0 -0 -0 -0 -0 -0 -0 -0 -0 -0 -0 -0 -0 -0 -0 -0 -0 -0 -0 -0 -0 -0 -0 -0 -0 -0 -0 -1 -0 -0 -0 -0 -0 -0 -0
-0 -0 -0 -0 -0 -0 -0 -0 -0 -0 -0 -0 -0 -0 -0 -0 -0 -0 -0 -0 -0 -0 -0 -0 -0 -0 -0 -0 -0 -0 -0 -0 -0 -0 -0 -0 -0 -1 -1 -1 -0 -1 -1
-0 -0 -0 -0 -0 -0 -0 -0 -0 -0 -0 -0 -0 -0 -0 -0 -0 -0 -0 -0 -0 -0 -0 -0 -0 -0 -1 -0 -0 -0 -1 -0 -0 -0 -0 -0 -0 -0 -0 -1 -0 -1 -1
-0 -0 -0 -0 -0 -0 -0 -0 -0 -0 -0 -0 -0 -0 -0 -0 -1 -1 -0 -0 -0 -0 -0 -0 -0 -0 -0 -0 -0 -0 -0 -0 -0 -0 -0 -0 -0 -0 -0 -0 -0 -0 -0
-0 -0 -0 -0 -0 -0 -0 -0 -0 -0 -0 -0 -0 -0 -0 -0 -1 -0 -0 -0 -0 -0 -0 -0 -0 -0 -0 -0 -0 -0 -0 -0 -0 -0 -0 -0 -0 -0 -0 -0 -0 -0 -0
-0 -0 -0 -0 -0 -0 -0 -0 -0 -0 -0 -0 -0 -0 -0 -0 -1 -1 -0 -0 -0 -0 -0 -0 -0 -0 -0 -1 -0 -0 -0 -0 -0 -0 -0 -0 -0 -0 -0 -0 -0 -1 -0
-0 -0 -0 -0 -0 -0 -0 -0 -0 -0 -0 -0 -0 -0 -0 -0 -1 -1 -0 -0 -0 -0 -0 -0 -0 -1 -1 -1 -0 -0 -0 -0 -0 -0 -0 -0 -0 -0 -0 -0 -0 -0 -0
-0 -0 -0 -0 -0 -0 -0 -0 -0 -0 -0 -0 -0 -0 -0 -0 -0 -1 -0 -0 -0 -0 -0 -0 -0 -0 -1 -0 -0 -0 -0 -0 -0 -0 -0 -0 -0 -0 -0 -0 -0 -0 -0
-0 -0 -0 -0 -0 -0 -0 -0 -0 -0 -0 -0 -0 -0 -0 -0 -0 -0 -0 -0 -0 -0 -0 -0 -0 -1 -1 -1 -0 -0 -0 -0 -0 -0 -0 -0 -0 -0 -0 -0 -0 -0 -0
-0 -0 -0 -0 -0 -0 -0 -0 -0 -0 -0 -0 -0 -0 -0 -0 -0 -0 -0 -0 -0 -0 -0 -0 -0 -0 -0 -0 -0 -0 -0 -0 -0 -0 -0 -0 -0 -0 -0 -0 -0 -0 -0
-0 -0 -0 -0 -0 -0 -0 -0 -0 -0 -0 -0 -0 -0 -0 -0 -0 -0 -0 -0 -0 -0 -0 -0 -0 -0 -0 -0 -0 -0 -0 -0 -0 -0 -0 -0 -0 -0 -0 -0 -0 -0 -0
-0 -0 -0 -0 -0 -0 -0 -0 -0 -0 -0 -0 -0 -0 -0 -0 -0 -0 -0 -0 -0 -0 -0 -0 -0 -0 -0 -0 -0 -0 -0 -0 -0 -0 -0 -0 -0 -0 -0 -0 -0 -0 -0
-0 -0 -0 -0 -0 -0 -0 -0 -0 -0 -0 -0 -0 -0 -0 -0 -0 -0 -0 -0 -0 -0 -0 -0 -0 -0 -0 -0 -0 -0 -0 -0 -0 -0 -0 -0 -0 -0 -0 -0 -0 -0 -0
-0 -0 -0 -0 -0 -0 -0 -0 -0 -0 -0 -0 -0 -0 -0 -0 -0 -0 -0 -0 -0 -0 -0 -0 -0 -0 -0 -0 -0 -0 -0 -0 -0 -0 -0 -0 -0 -0 -0 -0 -0 -0 -0
-0 -0 -0 -0 -0 -0 -0 -0 -0 -0 -0 -0 -0 -0 -0 -0 -0 -0 -0 -0 -0 -0 -0 -0 -0 -0 -0 -0 -0 -0 -0 -0 -0 -0 -0 -0 -0 -0 -0 -0 -0 -0 -0
-0 -0 -0 -0 -0 -0 -0 -0 -0 -0 -0 -0 -0 -0 -0 -0 -0 -0 -0 -0 -0 -0 -0 -0 -0 -0 -0 -0 -0 -0 -0 -0 -0 -0 -0 -0 -0 -0 -0 -0 -0 -0 -0
-0 -0 -0 -0 -0 -0 -0 -0 -0 -0 -0 -0 -0 -0 -0 -0 -0 -0 -0 -0 -0 -0 -0 -0 -0 -0 -0 -0 -0 -0 -0 -0 -0 -0 -0 -0 -0 -0 -0 -0 -0 -0 -0
-0 -0 -0 -0 -0 -0 -0 -0 -0 -0 -0 -0 -0 -0 -0 -0 -0 -0 -0 -0 -0 -0 -0 -0 -0 -0 -0 -0 -0 -0 -0 -0 -0 -0 -0 -0 -0 -0 -0 -0 -0 -0 -0
-0 -0 -0 -0 -0 -0 -0 -0 -0 -0 -0 -0 -0 -0 -0 -0 -0 -0 -0 -0 -0 -0 -0 -0 -0 -0 -0 -0 -0 -0 -0 -0 -0 -0 -0 -0 -0 -0 -0 -0 -0 -0 -0
-0 -0 -0 -0 -0 -0 -0 -0 -0 -0 -0 -0 -0 -0 -0 -0 -0 -0 -0 -0 -0 -0 -0 -0 -0 -0 -0 -0 -0 -0 -0 -0 -0 -0 -0 -0 -0 -0 -0 -0 -0 -0 -0
-0 -0 -0 -0 -0 -0 -0 -0 -0 -0 -0 -0 -0 -0 -0 -0 -0 -0 -0 -0 -0 -0 -0 -0 -0 -0 -0 -0 -0 -0 -0 -0 -0 -0 -0 -0 -0 -0 -0 -0 -0 -0 -0
-0 -0 -0 -0 -0 -0 -0 -0 -0 -0 -0 -0 -0 -0 -0 -0 -0 -0 -0 -0 -0 -0 -0 -0 -0 -0 -0 -0 -0 -0 -0 -0 -0 -0 -0 -0 -0 -0 -0 -0 -0 -0 -0
-0 -0 -0 -0 -0 -0 -0 -0 -0 -0 -0 -0 -0 -0 -0 -0 -0 -0 -0 -0 -0 -0 -0 -0 -0 -0 -0 -0 -0 -0 -0 -0 -0 -0 -0 -0 -0 -0 -0 -0 -0 -0 -0
-0 -0 -0 -0 -0 -0 -0 -0 -0 -0 -0 -0 -0 -0 -0 -0 -0 -0 -0 -0 -0 -0 -0 -0 -0 -0 -0 -0 -0 -0 -0 -0 -0 -0 -0 -0 -0 -0 -0 -0 -0 -0 -0
Wind_Speed
19 19 19 20 21 22 23 25 26 26 27 28 28 28 28 28 29 30 30 31 32 33 33 35 36 36 37 38 38 40 40 41 49 52 48 50 52 53 52 50 51 51 51
18 18 19 20 21 23 24 25 27 28 28 27 27 27 27 27 29 30 31 32 34 35 36 37 38 39 40 41 42 43 44 45 49 59 55 54 53 53 55 55 54 50 52
17 18 19 20 22 24 26 27 27 26 26 26 26 27 27 28 30 32 33 33 34 35 37 38 40 42 44 45 46 46 47 48 50 53 60 55 55 55 57 56 55 55 52
17 18 19 21 23 24 26 26 25 24 24 25 26 26 26 29 31 33 35 35 35 36 38 40 41 43 45 47 46 49 51 53 53 55 58 59 57 57 57 61 64 58 60
17 18 20 21 22 23 25 26 24 24 23 24 25 26 26 29 33 35 36 35 37 38 39 40 41 43 44 46 49 51 52 53 54 57 59 62 62 62 62 62 65 66 65
18 19 20 22 23 25 25 25 23 23 24 23 25 26 27 30 35 37 37 37 38 40 42 42 42 42 46 48 49 49 50 53 56 58 60 63 65 63 64 64 67 69 75
19 20 21 22 23 23 22 22 23 23 23 24 26 27 29 31 35 38 39 38 39 41 42 43 44 45 47 50 50 50 50 51 51 55 60 61 67 63 65 68 67 68 72
19 20 21 22 24 22 22 22 22 22 24 25 27 28 30 31 36 39 40 39 40 41 42 43 45 47 49 52 52 52 51 51 51 54 55 60 60 63 62 64 67 69 70
19 20 22 23 22 22 20 22 23 23 24 25 27 30 31 32 36 40 41 40 41 43 42 42 45 48 51 53 53 54 54 54 53 54 55 56 57 58 58 59 60 64 68
19 20 20 19 19 18 19 22 23 23 25 26 28 29 31 34 37 41 42 41 43 44 43 43 45 49 50 51 51 52 56 57 58 58 56 55 53 53 53 50 53 58 60
17 18 17 16 15 18 20 21 22 24 25 28 28 30 33 35 37 41 43 42 43 44 44 45 45 48 48 47 47 48 51 52 52 51 52 51 51 51 51 51 49 50 53
14 14 13 14 16 19 19 20 23 25 27 29 31 32 34 35 38 40 42 43 43 43 43 43 43 46 45 45 45 47 48 47 47 49 50 50 52 52 52 51 51 49 46
11 11 12 15 17 18 20 22 25 27 29 31 32 34 36 36 37 39 40 42 41 41 41 41 42 43 42 42 44 45 45 45 47 48 49 49 49 50 51 50 49 47 45
9 11 14 16 18 19 21 24 25 28 29 30 33 35 36 37 37 38 39 39 39 39 40 39 40 40 40 41 41 42 42 44 45 46 47 47 47 49 49 49 48 47 45
12 14 15 17 19 20 23 24 25 27 28 30 32 33 35 37 37 38 40 39 39 39 39 39 40 41 41 41 41 42 42 43 44 45 46 47 48 48 48 47 46 45 43
12 14 16 18 21 23 24 25 25 26 27 29 30 31 32 34 36 36 38 37 38 38 38 40 40 40 40 41 42 43 43 44 45 45 46 46 47 48 48 47 45 43 43
13 15 17 19 21 23 24 26 28 28 27 28 30 31 33 34 35 35 36 36 36 36 38 38 39 39 39 39 40 42 44 44 44 44 45 46 46 46 47 46 45 43 43
15 16 18 20 22 23 24 25 26 29 31 31 30 30 32 33 33 33 35 34 36 36 36 37 38 37 37 38 40 41 42 43 43 44 44 45 45 45 46 45 44 43 42
15 17 19 21 21 22 24 25 27 28 30 31 31 29 31 31 32 33 33 34 35 35 35 35 34 34 34 34 36 38 39 41 42 43 43 44 44 44 44 44 44 43 41
17 18 18 19 21 22 24 25 27 28 30 30 31 31 30 31 35 34 33 32 32 32 33 33 32 32 32 32 33 34 36 37 38 40 42 43 43 42 43 44 43 43 41
16 17 19 20 22 23 24 26 27 28 29 30 30 29 29 31 33 32 31 31 31 31 31 31 31 32 32 31 32 33 33 33 34 36 39 40 42 42 42 42 42 41 41
16 18 19 20 21 23 24 25 26 27 28 28 28 28 29 30 30 29 29 29 29 28 28 29 30 31 31 31 32 33 34 33 34 35 36 38 40 40 40 41 42 42 41
16 17 18 20 21 22 24 25 26 26 27 26 27 27 28 29 28 27 28 28 28 28 28 29 31 33 31 30 29 29 30 31 31 32 34 35 38 39 39 41 42 42 42
15 17 18 20 22 23 24 25 24 24 24 25 25 26 27 26 26 26 27 27 27 28 29 31 32 33 33 32 30 29 27 27 28 29 29 31 34 36 38 40 40 41 41
14 16 18 20 21 22 23 23 23 24 24 24 24 25 25 24 24 24 25 25 26 28 31 32 33 34 34 34 32 30 29 29 29 28 28 29 30 33 36 38 40 40 40
13 15 17 19 20 20 21 21 22 22 23 23 23 23 23 23 22 22 24 25 26 28 30 32 33 34 35 35 34 32 31 30 29 28 29 29 31 32 33 36 38 38 38
Wind_Direction
333 336 338 340 342 343 341 339 337 336 336 336 337 337 338 339 340 340 339 340 340 337 337 336 335 335 335 334 333 331 328 325 316 315 320 319 316 314 314 314 313 310 308
330 333 335 337 338 339 337 336 336 334 335 334 335 337 340 342 341 340 339 340 336 335 336 335 333 334 333 331 330 328 326 324 319 311 316 316 316 315 313 310 310 312 309
326 329 331 332 333 333 332 333 335 336 337 338 338 339 341 342 340 339 338 338 337 337 335 334 333 332 330 329 328 326 325 323 321 317 313 316 315 314 311 310 309 307 308
322 325 326 328 330 331 333 335 336 339 341 339 339 340 344 342 341 341 339 338 339 337 335 334 333 332 330 329 329 326 324 321 319 317 314 314 314 314 312 309 304 305 302
318 320 322 326 331 332 332 333 336 339 342 342 341 341 342 343 341 340 339 339 338 337 336 336 335 334 333 332 329 327 325 323 320 317 315 313 313 313 311 309 304 302 299
313 316 319 321 326 324 327 330 335 337 342 344 343 343 342 341 339 342 340 337 337 335 333 335 335 335 333 331 331 330 329 325 321 319 316 314 312 312 311 308 304 301 296
309 313 316 320 323 327 328 330 334 337 340 342 343 343 341 340 343 341 340 338 336 334 333 333 333 334 333 331 330 330 329 328 326 322 318 316 313 314 311 306 303 300 295
305 309 314 319 321 324 327 324 335 340 340 342 341 342 340 342 340 339 339 338 336 335 334 334 333 332 332 331 329 329 328 329 328 326 322 319 317 315 313 308 304 300 295
304 307 314 317 318 321 325 327 332 337 340 340 340 338 341 340 340 340 339 337 335 335 335 335 334 333 332 331 330 328 328 328 329 327 326 324 322 321 319 314 310 306 300
303 310 316 320 320 323 327 329 332 338 339 340 340 339 341 340 339 339 339 337 335 335 335 335 336 335 335 334 333 331 328 328 328 327 328 327 327 325 325 323 317 309 304
308 314 323 326 327 327 330 337 338 338 340 340 340 341 340 339 339 339 339 337 336 335 335 335 337 337 337 337 337 336 334 333 333 333 332 333 332 331 329 327 324 320 311
314 321 326 327 331 332 338 340 340 340 340 339 339 340 341 340 340 339 340 340 340 338 337 338 338 339 340 340 340 339 339 339 338 337 335 334 334 332 330 328 325 323 320
318 324 334 335 340 341 340 339 338 339 339 338 339 338 338 340 340 342 342 343 343 342 342 341 341 342 343 344 344 344 344 343 340 339 337 337 336 334 331 329 327 326 325
330 329 334 335 340 341 341 340 340 340 340 339 339 338 339 341 341 344 344 345 345 345 345 344 344 345 346 346 346 347 347 346 344 342 340 339 337 335 332 333 328 327 327
328 332 338 341 340 340 341 342 341 341 342 340 340 342 341 341 343 344 344 344 345 346 346 346 346 345 345 346 347 347 348 347 346 344 343 340 337 337 335 332 330 328 329
342 342 340 340 339 339 339 338 341 342 343 346 346 345 346 345 345 345 346 348 348 349 348 346 346 347 346 345 345 344 345 344 343 343 342 340 337 336 335 335 331 331 327
344 341 340 339 339 339 339 338 337 341 344 344 345 345 345 345 346 347 348 349 350 351 349 349 348 348 347 347 346 345 342 342 342 343 341 338 336 336 336 335 332 329 327
344 343 341 340 340 339 339 341 341 339 338 340 344 345 347 347 348 349 349 350 348 351 351 349 349 350 350 349 347 345 345 344 344 344 343 339 338 337 336 335 333 329 326
342 341 340 340 342 343 342 341 341 341 339 340 343 346 347 348 349 349 350 349 348 349 350 350 352 353 353 353 352 350 349 347 346 345 344 341 338 337 336 335 333 329 327
341 342 344 344 342 341 341 340 339 339 339 340 341 342 346 347 346 346 348 349 349 349 349 351 353 354 355 356 355 355 354 354 352 351 345 343 342 339 336 334 332 330 328
345 344 342 341 340 340 340 338 338 338 338 339 340 343 345 345 344 346 347 348 348 348 349 351 352 353 354 355 355 355 356 356 356 355 351 348 343 339 339 336 335 332 330
345 342 341 339 340 339 339 340 338 338 338 339 340 342 343 344 345 346 347 347 348 349 350 351 351 351 352 353 354 354 354 354 354 355 354 351 345 342 341 337 335 333 331
344 342 341 340 339 339 338 337 337 338 338 339 340 341 343 344 345 346 346 345 346 348 348 349 347 346 349 352 354 354 353 353 353 354 353 352 348 343 339 336 335 333 331
343 341 339 338 337 337 336 336 337 337 338 338 339 340 342 343 344 344 344 344 344 345 344 345 344 344 345 348 351 353 353 353 352 352 352 351 349 345 339 335 334 334 333
344 341 339 337 336 336 336 336 336 336 336 337 338 339 340 342 342 342 342 342 343 342 341 342 342 342 343 344 347 349 351 351 351 351 351 350 349 346 341 337 333 333 333
341 339 337 337 336 336 336 335 335 336 336 336 337 337 338 339 340 340 340 340 341 341 340 340 342 341 341 342 344 346 348 349 349 349 350 350 347 345 343 340 337 335 331